#timestamp,LO_Frequency,Hit,StdDev 
1568761215.7,286046998.1,N
1568761235.5,286046997.9,N
1568761255.3,286046997.5,N
1568761275.2,286046997.0,N
1568761295.9,286046998.9,N
1568761315.7,286047000.7,N
1568761335.6,286047002.3,N
1568761355.4,286047003.1,N
1568761375.3,286047003.6,N
1568761395.1,286047005.8,N
1568761396.0,286047005.8,N
1568761415.8,286047003.3,N
1568761435.7,286047003.5,N
1568761455.5,286047003.2,N
1568761475.3,286047005.7,N
1568761495.2,286047009.1,Y
1568761515.0,286047009.1,P
1568761515.9,286047009.1,N
1568761535.8,286047008.8,N
1568761555.6,286047012.3,Y
1568761575.4,286047004.1,P
1568761595.3,286047004.3,N
1568761615.1,286047001.5,N
1568761635.9,286047000.2,N
1568761655.7,286047000.5,N
1568761675.5,286047001.1,N
1568761695.4,286046998.3,N
1568761715.2,286046999.4,N
1568761735.0,286046997.6,N
1568761735.9,286046997.6,N
1568761755.8,286046999.0,N
1568761775.6,286046998.8,N
1568761795.5,286046996.5,N
1568761815.3,286046996.5,N
1568761835.1,286046997.0,N
1568761855.9,286047002.4,N
1568761875.7,286047002.0,N
1568761895.5,286047002.2,N
1568761915.4,286047004.3,N
1568761935.2,286047004.4,N
1568761955.1,286047003.6,N
1568761956.0,286047003.6,N
1568761975.8,286047004.4,N
1568761995.6,286047002.5,N
1568762015.5,286047002.3,N
1568762035.3,286047002.5,N
1568762055.1,286047000.1,N
1568762075.9,286047000.9,N
1568762095.7,286046995.2,N
1568762115.6,286046995.3,N
1568762135.4,286046993.6,N
1568762155.2,286046993.8,N
1568762175.1,286046995.7,N
1568762176.0,286046995.7,N
1568762195.8,286046996.8,N
1568762215.7,286046999.0,N
1568762235.5,286046997.3,N
1568762255.3,286046999.1,N
1568762275.2,286046999.1,N
1568762295.9,286046997.8,N
1568762315.7,286046997.6,N
1568762335.6,286046995.3,N
1568762355.4,286046994.8,N
1568762375.3,286046994.2,N
1568762395.1,286046992.4,N
1568762396.0,286046992.4,N
1568762415.8,286046996.1,N
1568762435.7,286046995.5,N
1568762455.5,286046996.0,N
1568762475.3,286046994.4,N
1568762495.2,286046994.2,N
1568762515.0,286046996.1,N
1568762515.9,286046996.1,N
1568762535.8,286046993.6,N
1568762555.6,286046993.3,N
1568762575.4,286046996.1,N
1568762595.3,286046994.9,N
1568762615.1,286046996.6,N
1568762635.8,286046996.1,N
1568762655.7,286046998.9,N
1568762675.5,286047000.3,N
1568762695.4,286047000.6,N
1568762715.2,286047011.9,Y
1568762735.0,286047003.9,P
1568762735.9,286047003.9,N
1568762755.8,286047003.8,N
1568762775.6,286046999.9,N
1568762795.4,286047000.8,N
1568762815.3,286047000.8,N
1568762835.1,286047001.0,N
1568762855.9,286047001.9,N
1568762875.7,286047001.0,N
1568762895.5,286046998.6,N
1568762915.4,286047002.5,N
1568762935.2,286047001.9,N
1568762955.1,286047001.4,N
1568762956.0,286047001.4,N
1568762975.8,286047000.4,N
1568762995.6,286046998.8,N
1568763015.5,286047001.1,N
1568763035.3,286047000.9,N
1568763055.1,286047000.3,N
1568763075.9,286047002.9,N
1568763095.7,286047007.0,Y
1568763115.6,286047007.1,P
1568763135.4,286047007.2,N
1568763155.2,286047006.6,N
1568763175.1,286047008.7,Y
1568763176.0,286047008.7,P
1568763195.8,286047002.3,N
1568763215.7,286047001.6,N
1568763235.5,286047002.7,N
1568763255.3,286047002.3,N
1568763275.2,286047001.2,N
1568763295.0,286047001.2,N
1568763295.9,286047001.2,N
1568763315.8,286047000.8,N
1568763335.6,286046998.8,N
1568763355.4,286046999.0,N
1568763375.3,286046999.4,N
1568763395.1,286047000.1,N
1568763415.8,286047004.4,N
1568763435.7,286046999.8,N
1568763455.5,286046999.7,N
1568763475.4,286047000.2,N
1568763495.2,286047002.5,N
1568763515.0,286047000.5,N
1568763515.9,286047000.5,N
1568763535.8,286047001.5,N
1568763555.6,286047004.0,N
1568763575.5,286047003.8,N
1568763595.3,286047001.3,N
1568763615.1,286047006.0,N
1568763635.9,286047004.2,N
1568763655.7,286047004.3,N
1568763675.5,286046999.8,N
1568763695.4,286047002.7,N
1568763715.2,286047001.3,N
1568763735.1,286047004.4,N
1568763736.0,286047004.4,N
1568763755.8,286047003.9,N
1568763775.6,286047003.1,N
1568763795.5,286047004.2,N
1568763815.3,286047004.2,N
1568763835.2,286047004.2,N
1568763855.9,286047003.2,N
1568763875.7,286047003.0,N
1568763895.6,286047001.5,N
1568763915.4,286047002.2,N
1568763935.3,286046999.8,N
1568763955.1,286047002.3,N
1568763956.0,286047002.3,N
1568763975.8,286047003.0,N
1568763995.7,286047006.0,Y
1568764015.5,286047003.3,P
1568764035.4,286047006.4,P
1568764055.2,286047007.5,P
1568764075.0,286047008.7,Y
1568764075.9,286047008.7,P
1568764095.8,286047003.8,N
1568764115.6,286047003.6,N
1568764135.5,286047006.7,Y
1568764155.3,286047000.4,P
1568764175.1,286046999.1,N
1568764195.9,286046999.0,N
1568764215.7,286046997.3,N
1568764235.5,286046994.6,N
1568764255.4,286046992.6,N
1568764275.2,286046992.1,N
1568764295.1,286046995.3,N
1568764296.0,286046995.3,N
1568764315.8,286046998.5,N
1568764335.6,286047004.4,N
1568764355.5,286047001.4,N
1568764375.3,286047002.3,N
1568764395.1,286047000.0,N
1568764415.9,286047001.6,N
1568764435.7,286047004.9,N
1568764455.6,286047005.9,N
1568764475.4,286047001.7,N
1568764495.2,286047002.2,N
1568764515.1,286047002.4,N
1568764516.0,286047002.4,N
1568764535.8,286047003.6,N
1568764555.6,286047002.9,N
1568764575.5,286047010.8,N
1568764595.3,286047008.9,N
1568764615.2,286047007.0,N
1568764635.9,286047007.4,N
1568764655.7,286047007.9,N
1568764675.6,286047008.1,N
1568764695.4,286047007.7,N
1568764715.3,286047009.6,N
1568764735.1,286047008.0,N
1568764736.0,286047008.0,N
1568764755.8,286047006.6,N
1568764775.7,286047006.2,N
1568764795.5,286047005.0,N
